Regional Weather Roundup
Issued by NWS

Home | Current Version | Previous Version | Graphics & Text | Print | Product List | Glossary On
Versions: 1 2 3 4 5 6 7 8 9 10 11 12 13 14 15 16 17 18 19 20 21 22 23 24 25 26 27
000
ASUS45 KBOI 232110
RWRID
WEATHER ROUNDUP FOR IDAHO
NATIONAL WEATHER SERVICE BOISE ID
300 PM MDT WED APR 23 2014

NOTE: "FAIR" INDICATES FEW OR NO CLOUDS BELOW 12000 FEET
WITH NO SIGNIFICANT WEATHER AND/OR OBSTRUCTIONS TO VISIBILITY

IDZ012-014-232200-
SOUTHWEST IDAHO


CITY           SKY/WX    TMP DP  RH WIND       PRES   REMARKS
BOISE          CLOUDY    52  31  44 SW6       30.01F
CALDWELL       CLOUDY    52  28  40 S15G21    30.02F
MOUNTAIN HOME  PTSUNNY   54  27  35 NW8       30.01S
$$

IDZ016-017-232200-
SOUTHCENTRAL IDAHO


CITY           SKY/WX    TMP DP  RH WIND       PRES   REMARKS
BURLEY         PTSUNNY   47  27  45 W15G25    30.01S
JEROME         MOSUNNY   50  26  39 SW8G20    30.02S
TWIN FALLS     PTSUNNY   50  30  46 SW9       30.02F
$$

IDZ019>023-232200-
SOUTHEAST IDAHO


CITY           SKY/WX    TMP DP  RH WIND       PRES   REMARKS
IDAHO FALLS    PTSUNNY   48  20  32 SW20G25   29.93S
POCATELLO      PTSUNNY   50  21  32 W28G35    29.99S
REXBURG        PTSUNNY   48  14  25 W15G26    29.91F
$$

IDZ006-010-011-018-031-032-232200-
CENTRAL IDAHO MOUNTAINS


CITY           SKY/WX    TMP DP  RH WIND       PRES   REMARKS
MCCALL         PTSUNNY   41  26  55 S16G30    29.93S
HAILEY         PTSUNNY   43  27  52 S17       29.97
STANLEY          N/A     32  24  72 SE8       29.95S WCI  25
SALMON         PTSUNNY   46  21  36 SW15G22   29.86S
CHALLIS        PTSUNNY   44  17  33 W8G20     29.89S
$$

IDZ002-004-006-007-026-232200-
NORTHERN IDAHO


CITY           SKY/WX    TMP DP  RH WIND       PRES   REMARKS
LEWISTON       PTSUNNY   57  27  31 NW8       29.87F
LOWELL           N/A     53  41  63 VRB5      29.89F
COEUR D`ALENE  MOSUNNY   54  36  50 SW24G30   29.81F
MULLAN PASS    SNOW      26  24  92 VRB6      29.77S VSB 1/2 WCI  19
$$



USA.gov is the U.S. government's official web portal to all federal, state and local government web resources and services.